[[{"header":{"parameterUnit":"m.s-1","parameterCategory":2,"la1":30.2991,"la2":30.254,"lo1":-89.0895,"lo2":-89.0444,"dx":0.0017,"dy":0.0017,"nx":28,"ny":28,"refTime":"2022-11-16T09:00:00:Z","depth":"0","parameterNumber":2,"parameterNumberName":"U-component_of_CURRENTS"},"data":[0,0,0,0,0,0,0,0,0,0,0,0,0,0,0,0,0,0,0,0,0,0,0,0,0,0,0,0,0,0,0,0,0,0,0,0,0,0,0,0,0,0,0,0,0,0,0,0,0,0,0,0,0,0,0,0,0,0,0.2064,0.2064,0,0.2089,0.2089,0.2089,0.2091,0.2091,0.2091,0.2091,0.2066,0.2065,0.2065,0,0,0,0,0,0,0,0,0,0,0,0,0,0.2032,0.2032,0.2064,0.2064,0.2065,0.2089,0.2089,0.2089,0.2091,0.2091,0.2091,0.2091,0.2066,0.2065,0.2065,0,0,0,0,0,0,0,0,0,0,0,0,0,0.2049,0.2032,0.2064,0.207,0.2071,0.2089,0.2089,0.209,0.2091,0.2091,0.2091,0.2091,0.2066,0.2065,0.2064,0.2063,0,0,0.2062,0.2062,0,0,0,0,0,0,0,0,0.2048,0.205,0.2068,0.2069,0.207,0.2088,0.2069,0.2079,0.2091,0.2082,0.2091,0.2091,0.207,0.2069,0.2072,0.2062,0.2061,0.2062,0.2061,0.2061,0.2061,0,0,0,0,0,0,0,0.2046,0.2049,0.2072,0.2069,0.207,0.2076,0.2078,0.2071,0.2074,0.2082,0.2083,0.2089,0.207,0.2073,0.2071,0.2061,0.2062,0.2061,0.2061,0.206,0.207,0.2071,0,0,0,0,0,0,0.2046,0.2047,0.2071,0.2073,0.206,0.2077,0.2079,0.2081,0.2075,0.2075,0.2089,0.2089,0.2075,0.2072,0.2071,0.2087,0.2061,0.206,0.206,0.207,0.2071,0.2071,0,0,0,0,0,0,0.2045,0.2048,0.207,0.2062,0.2066,0.2078,0.208,0.2082,0.2089,0.2081,0.208,0.2094,0.2074,0.2072,0.2069,0.2085,0.206,0.2059,0.2069,0.207,0.2071,0.2107,0,0,0,0,0,0,0.2044,0.2047,0.2048,0.2062,0.2066,0.2085,0.2081,0.2083,0.2093,0.2093,0.2085,0.2083,0.2074,0.207,0.2068,0.2083,0.2058,0.2068,0.2069,0.2071,0.2105,0.2109,0.2113,0,0,0,0,0,0.2043,0.2042,0.2047,0.205,0.2066,0.2086,0.2088,0.2095,0.2093,0.2099,0.2094,0.2083,0.2078,0.207,0.2067,0.2083,0.2067,0.2069,0.2071,0.2103,0.2108,0.2113,0,0,0,0,0,0,0.2027,0.2043,0.2049,0.2052,0.2071,0.2087,0.2091,0.2098,0.21,0.2096,0.2087,0.2085,0.2089,0.2081,0.2072,0.2091,0.2073,0.2074,0.2099,0.2103,0.2107,0.2114,0.2058,0,0,0,0,0,0.2025,0.2029,0.2049,0.2054,0.2062,0.2078,0.2086,0.2093,0.2099,0.21,0.2095,0.2092,0.2094,0.2094,0.209,0.2097,0.21,0.2107,0.2111,0.2115,0.2119,0.2146,0.2153,0.2077,0.2077,0.2077,0,0,0.2021,0.203,0.2033,0.2052,0.2064,0.208,0.2082,0.2095,0.2112,0.2095,0.2106,0.2101,0.2098,0.2108,0.211,0.2103,0.2137,0.2117,0.212,0.2122,0.2149,0.2156,0.2163,0.2078,0.2078,0.2078,0,0,0.2021,0.2024,0.2032,0.2048,0.207,0.208,0.2086,0.2104,0.2113,0.2126,0.2121,0.2128,0.2126,0.2134,0.2137,0.2161,0.2155,0.2159,0.2188,0.2215,0.2221,0.2227,0.2237,0.2243,0.2165,0.2165,0.2165,0,0.2016,0.2028,0.2038,0.2055,0.2068,0.2081,0.2098,0.2113,0.2128,0.214,0.2132,0.2149,0.2142,0.2168,0.2178,0.217,0.2179,0.2169,0.222,0.2226,0.2232,0.2241,0.2247,0.2167,0.2167,0.2167,0.2167,0,0.2027,0.204,0.2046,0.207,0.2086,0.2099,0.2125,0.2141,0.2149,0.2164,0.2188,0.2187,0.2201,0.2203,0.2197,0.2235,0.2226,0.222,0.2209,0.2242,0.2249,0.2255,0.217,0.2169,0.2169,0.2168,0,0,0.2005,0.2046,0.2048,0.2065,0.2093,0.2108,0.2138,0.2169,0.2197,0.2208,0.2242,0.2251,0.2253,0.2257,0.2256,0.2279,0.232,0.2268,0.2269,0.2279,0.2371,0.2361,0.2367,0.2326,0.2327,0.2328,0.236,0,0.201,0.2041,0.2061,0.2091,0.2106,0.2134,0.2162,0.2193,0.2221,0.2255,0.2269,0.2294,0.2275,0.2289,0.2308,0.232,0.2339,0.2311,0.2337,0.2338,0.2326,0.2375,0.234,0.2365,0.2366,0.2367,0.2367,0,0.2006,0.2031,0.206,0.2105,0.2115,0.2136,0.2187,0.222,0.2272,0.2296,0.2328,0.2339,0.2374,0.2353,0.2393,0.2378,0.2377,0.2381,0.2382,0.2366,0.234,0.2333,0.2376,0.2366,0.2377,0.2376,0.2375,0,0.1975,0.2024,0.2045,0.206,0.2116,0.2139,0.217,0.2226,0.2258,0.2329,0.2355,0.2397,0.2419,0.2437,0.2441,0.2425,0.2481,0.2459,0.2446,0.2444,0.2415,0.2409,0.2453,0.2486,0.2486,0.2486,0.2486,0,0.1959,0.1977,0.2035,0.2047,0.2078,0.2128,0.217,0.2216,0.228,0.2317,0.2372,0.2412,0.2443,0.2473,0.2469,0.2483,0.2504,0.2463,0.2461,0.2425,0.242,0.241,0.2393,0.2487,0.2487,0.2487,0.2486,0,0.1914,0.1951,0.198,0.2043,0.2061,0.2085,0.2153,0.2188,0.2261,0.2316,0.2339,0.2427,0.2484,0.2503,0.254,0.2518,0.2485,0.2526,0.2476,0.2467,0.244,0.2426,0.2348,0.2267,0.2524,0.2524,0.2524,0,0.1888,0.1901,0.1962,0.1976,0.2003,0.2048,0.2076,0.216,0.22,0.2321,0.234,0.243,0.2476,0.2538,0.2554,0.2564,0.2486,0.251,0.2474,0.2451,0.2433,0.2324,0.2252,0.2445,0.2445,0.2444,0.2444,0,0.184,0.1865,0.1892,0.1919,0.1948,0.1985,0.2037,0.2061,0.2164,0.2221,0.2303,0.236,0.2466,0.2491,0.2528,0.2526,0.243,0.25,0.2497,0.24,0.2263,0.218,0.2402,0.244,0.244,0.2441,0.2441,0.2441,0.1793,0.1798,0.1827,0.1853,0.1878,0.19,0.191,0.1976,0.2024,0.2104,0.2214,0.2297,0.242,0.2492,0.2466,0.2468,0.2405,0.2425,0.2416,0.2312,0.2214,0.2422,0.2446,0.2446,0.2446,0.2447,0.2447,0,0.172,0.1736,0.1756,0.1771,0.177,0.1817,0.186,0.1871,0.1899,0.2021,0.2091,0.2254,0.2322,0.2403,0.2482,0.2418,0.2272,0.2363,0.222,0.2154,0.2382,0.2364,0.2345,0.2345,0.2345,0.2345,0.2345,0.2345,0.1678,0.1666,0.1684,0.1652,0.1667,0.165,0.1664,0.1702,0.1778,0.1886,0.1995,0.2115,0.2355,0.2539,0.2537,0.2453,0.2243,0.2162,0.2105,0.2323,0.2328,0.2333,0.2314,0.2285,0.2285,0.1802,0.1799,0.1796]},{"header":{"parameterUnit":"m.s-1","parameterCategory":2,"la1":30.2991,"la2":30.254,"lo1":-89.0895,"lo2":-89.0444,"dx":0.0017,"dy":0.0017,"nx":28,"ny":28,"refTime":"2022-11-16T09:00:00:Z","depth":"0","parameterNumber":3,"parameterNumberName":"V-component_of_CURRENTS"},"data":[0,0,0,0,0,0,0,0,0,0,0,0,0,0,0,0,0,0,0,0,0,0,0,0,0,0,0,0,0,0,0,0,0,0,0,0,0,0,0,0,0,0,0,0,0,0,0,0,0,0,0,0,0,0,0,0,0,0,-0.045,-0.045,0,-0.0508,-0.0508,-0.0509,-0.0536,-0.0536,-0.0536,-0.0537,-0.0536,-0.0536,-0.0536,0,0,0,0,0,0,0,0,0,0,0,0,0,-0.0395,-0.0395,-0.0449,-0.045,-0.0451,-0.0508,-0.0508,-0.0509,-0.0536,-0.0536,-0.0536,-0.0537,-0.0537,-0.0536,-0.0536,0,0,0,0,0,0,0,0,0,0,0,0,0,-0.0431,-0.0395,-0.0449,-0.0472,-0.0475,-0.0508,-0.0508,-0.0509,-0.0536,-0.0536,-0.0536,-0.0537,-0.0537,-0.0536,-0.0536,-0.0534,0,0,-0.0536,-0.0536,0,0,0,0,0,0,0,0,-0.0429,-0.0433,-0.0468,-0.0471,-0.0474,-0.0516,-0.0489,-0.0515,-0.0536,-0.0512,-0.0537,-0.0537,-0.0525,-0.0526,-0.0536,-0.0534,-0.0534,-0.0536,-0.0536,-0.0536,-0.0536,0,0,0,0,0,0,0,-0.0426,-0.0431,-0.0471,-0.0469,-0.0473,-0.0491,-0.0496,-0.0495,-0.0515,-0.0514,-0.0516,-0.0525,-0.0526,-0.0536,-0.0536,-0.0534,-0.0536,-0.0536,-0.0536,-0.0536,-0.0527,-0.0527,0,0,0,0,0,0,-0.042,-0.0428,-0.047,-0.0473,-0.0453,-0.0492,-0.0497,-0.0501,-0.0516,-0.052,-0.0525,-0.0526,-0.0536,-0.0536,-0.0536,-0.0519,-0.0536,-0.0536,-0.0536,-0.0527,-0.0527,-0.0527,0,0,0,0,0,0,-0.0418,-0.0423,-0.0467,-0.0453,-0.046,-0.0493,-0.0497,-0.0503,-0.0512,-0.0525,-0.0527,-0.0528,-0.0536,-0.0536,-0.0528,-0.0519,-0.0536,-0.0536,-0.0527,-0.0527,-0.0527,-0.0494,0,0,0,0,0,0,-0.0416,-0.0422,-0.0419,-0.0453,-0.0461,-0.0475,-0.0497,-0.0504,-0.0517,-0.0519,-0.0529,-0.0529,-0.0536,-0.0528,-0.0528,-0.052,-0.0536,-0.0528,-0.0527,-0.0527,-0.0495,-0.0493,-0.049,0,0,0,0,0,-0.0414,-0.0405,-0.0418,-0.0423,-0.0457,-0.0474,-0.048,-0.0503,-0.0517,-0.0513,-0.0523,-0.0529,-0.0527,-0.0528,-0.0528,-0.0519,-0.0528,-0.0527,-0.0527,-0.0496,-0.0493,-0.049,0,0,0,0,0,0,-0.0377,-0.0408,-0.0423,-0.0423,-0.0444,-0.0479,-0.0478,-0.05,-0.0508,-0.0506,-0.0523,-0.0523,-0.0516,-0.0522,-0.0523,-0.0517,-0.053,-0.0529,-0.0507,-0.0504,-0.0501,-0.0486,-0.0536,0,0,0,0,0,-0.0369,-0.0373,-0.0405,-0.0406,-0.0411,-0.0446,-0.0456,-0.0473,-0.0488,-0.0493,-0.0503,-0.0511,-0.0515,-0.0512,-0.0516,-0.0507,-0.0514,-0.0503,-0.0501,-0.0499,-0.0487,-0.0499,-0.0496,-0.0525,-0.0525,-0.0525,0,0,-0.0358,-0.0374,-0.0378,-0.0398,-0.0415,-0.0415,-0.0451,-0.046,-0.046,-0.0489,-0.0484,-0.0501,-0.0511,-0.0505,-0.0502,-0.0507,-0.0494,-0.0498,-0.0496,-0.0485,-0.0498,-0.0496,-0.0493,-0.0525,-0.0525,-0.0525,0,0,-0.033,-0.0347,-0.0337,-0.0349,-0.0371,-0.039,-0.0391,-0.0421,-0.0431,-0.0434,-0.0457,-0.0469,-0.0471,-0.0482,-0.0486,-0.0472,-0.0482,-0.0474,-0.0444,-0.0457,-0.0454,-0.0452,-0.0454,-0.0452,-0.0471,-0.0471,-0.0471,0,-0.0309,-0.0308,-0.0336,-0.0328,-0.0332,-0.0374,-0.0361,-0.0378,-0.0404,-0.0406,-0.0423,-0.0445,-0.0461,-0.0455,-0.0455,-0.0465,-0.0468,-0.0454,-0.0453,-0.0451,-0.0449,-0.0451,-0.045,-0.0469,-0.0469,-0.0469,-0.0469,0,-0.0276,-0.0274,-0.0267,-0.0271,-0.0277,-0.0273,-0.0299,-0.0304,-0.0327,-0.035,-0.0356,-0.0388,-0.0398,-0.0413,-0.0429,-0.0425,-0.043,-0.045,-0.0458,-0.0444,-0.0447,-0.0446,-0.0467,-0.0467,-0.0468,-0.0468,0,0,-0.0219,-0.0238,-0.0232,-0.0227,-0.0245,-0.0243,-0.0238,-0.0246,-0.0239,-0.0276,-0.0268,-0.0302,-0.0331,-0.0339,-0.0369,-0.0386,-0.0388,-0.0408,-0.041,-0.0404,-0.0402,-0.0413,-0.0414,-0.0406,-0.0406,-0.0406,-0.0407,0,-0.0177,-0.0151,-0.0174,-0.0147,-0.0134,-0.0165,-0.0155,-0.017,-0.0191,-0.0193,-0.024,-0.0248,-0.0299,-0.0306,-0.033,-0.0372,-0.0384,-0.0384,-0.042,-0.042,-0.0429,-0.0413,-0.0416,-0.0418,-0.0406,-0.0406,-0.0406,0,-0.0127,-0.0118,-0.0083,-0.0084,-0.0078,-0.0067,-0.0055,-0.0056,-0.0078,-0.0093,-0.0119,-0.0162,-0.0193,-0.0241,-0.0299,-0.0295,-0.0339,-0.0378,-0.0379,-0.0398,-0.043,-0.0432,-0.0417,-0.0554,-0.0405,-0.0405,-0.0405,0,-0.0062,-0.0052,-0.002,-0.0019,-0.0024,-0.0007,-0.0007,-0.0019,-0.0007,-0.003,-0.0026,-0.008,-0.0094,-0.0165,-0.0257,-0.0273,-0.0317,-0.0352,-0.0401,-0.0403,-0.0416,-0.0418,-0.0533,-0.0385,-0.0385,-0.0385,-0.0385,0,-0.0005,0.0019,0.0014,0.0033,0.0077,0.0053,0.0097,0.0085,0.0086,0.0116,0.0031,0.0048,-0.0076,-0.0125,-0.0218,-0.03,-0.0287,-0.0385,-0.0402,-0.0404,-0.0406,-0.0535,-0.0616,-0.0385,-0.0385,-0.0385,-0.0385,0,0.0057,0.0052,0.0088,0.0099,0.0108,0.0142,0.0167,0.0199,0.018,0.0221,0.0217,0.0156,0.0088,-0.0039,-0.0144,-0.0237,-0.0406,-0.0358,-0.0348,-0.0364,-0.0549,-0.0626,-0.0754,-0.0814,-0.0412,-0.0412,-0.0412,0,0.0091,0.0117,0.0147,0.018,0.0188,0.0229,0.0266,0.0257,0.0294,0.0298,0.0332,0.0268,0.0245,0.0073,-0.0109,-0.0268,-0.0403,-0.0376,-0.0419,-0.0551,-0.0651,-0.0719,-0.0765,-0.0421,-0.0422,-0.0422,-0.0422,0,0.0159,0.0169,0.0198,0.0263,0.0311,0.0354,0.0402,0.0446,0.045,0.0477,0.0509,0.0486,0.0315,0.0148,-0.0087,-0.0211,-0.0489,-0.0385,-0.0529,-0.067,-0.0744,-0.0811,-0.0425,-0.0424,-0.0424,-0.0424,-0.0424,-0.0424,0.0214,0.0247,0.029,0.0351,0.0406,0.047,0.0516,0.0571,0.0632,0.0677,0.0656,0.0644,0.0381,0.0053,-0.0135,-0.0499,-0.0509,-0.0612,-0.0693,-0.0746,-0.082,-0.0432,-0.0452,-0.0452,-0.0452,-0.0452,-0.0452,0,0.0277,0.031,0.0376,0.0443,0.0512,0.0518,0.0601,0.0647,0.0728,0.0782,0.0802,0.066,0.0338,-0.0002,-0.0484,-0.0751,-0.0862,-0.091,-0.1018,-0.1048,-0.0703,-0.0721,-0.0792,-0.0792,-0.0792,-0.0792,-0.0792,-0.0791,0.0313,0.0382,0.0408,0.0522,0.0569,0.0644,0.0688,0.0755,0.0804,0.085,0.0839,0.0803,0.0518,-0.0318,-0.0949,-0.1096,-0.1285,-0.1334,-0.1431,-0.1215,-0.1194,-0.1174,-0.121,-0.1382,-0.1383,-0.1742,-0.1746,-0.1749]}],[{"header":{"parameterUnit":"m.s-1","parameterCategory":2,"la1":30.2991,"la2":30.254,"lo1":-89.0895,"lo2":-89.0444,"dx":0.0017,"dy":0.0017,"nx":28,"ny":28,"refTime":"2022-11-16T09:00:00:Z","depth":"2","parameterNumber":2,"parameterNumberName":"U-component_of_CURRENTS"},"data":[0,0,0,0,0,0,0,0,0,0,0,0,0,0,0,0,0,0,0,0,0,0,0,0,0,0,0,0,0,0,0,0,0,0,0,0,0,0,0,0,0,0,0,0,0,0,0,0,0,0,0,0,0,0,0,0,0,0,0.1949,0.195,0,0.1985,0.1985,0.1986,0.1997,0.1997,0.1997,0.1997,0.1978,0.1978,0.1977,0,0,0,0,0,0,0,0,0,0,0,0,0,0.1928,0.1928,0.1949,0.195,0.195,0.1985,0.1985,0.1986,0.1997,0.1997,0.1997,0.1997,0.1978,0.1978,0.1977,0,0,0,0,0,0,0,0,0,0,0,0,0,0.1948,0.1928,0.1949,0.196,0.1962,0.1985,0.1985,0.1986,0.1997,0.1997,0.1997,0.1997,0.1978,0.1978,0.1977,0.1978,0,0,0.1976,0.1975,0,0,0,0,0,0,0,0,0.1946,0.1948,0.1958,0.196,0.1961,0.1987,0.1971,0.1981,0.1997,0.1984,0.1997,0.1997,0.1976,0.1976,0.1983,0.1977,0.1976,0.1976,0.1975,0.1975,0.1975,0,0,0,0,0,0,0,0.1945,0.1947,0.1963,0.1959,0.1961,0.1976,0.1978,0.1973,0.1979,0.1985,0.1986,0.199,0.1977,0.1984,0.1983,0.1976,0.1976,0.1975,0.1975,0.1975,0.1994,0.1995,0,0,0,0,0,0,0.1939,0.1946,0.1962,0.1964,0.1954,0.1977,0.1979,0.1979,0.1981,0.1981,0.199,0.1991,0.1985,0.1984,0.1982,0.2002,0.1975,0.1974,0.1974,0.1993,0.1994,0.1995,0,0,0,0,0,0,0.1939,0.194,0.1961,0.1956,0.196,0.1977,0.1976,0.1979,0.1995,0.1986,0.1985,0.2004,0.1985,0.1983,0.1979,0.2001,0.1974,0.1974,0.1992,0.1993,0.1994,0.2029,0,0,0,0,0,0,0.1938,0.194,0.194,0.1956,0.196,0.1977,0.1977,0.198,0.1998,0.1999,0.1997,0.1995,0.1985,0.198,0.1978,0.1999,0.1973,0.1991,0.1993,0.1994,0.2027,0.2032,0.2036,0,0,0,0,0,0.1937,0.1935,0.194,0.1942,0.1959,0.1977,0.1981,0.1992,0.1999,0.2006,0.2002,0.1995,0.1989,0.1979,0.1978,0.1999,0.199,0.1992,0.1994,0.2025,0.2031,0.2035,0,0,0,0,0,0,0.1925,0.1937,0.1942,0.1944,0.1961,0.1979,0.1988,0.1999,0.2005,0.2005,0.1997,0.1994,0.2002,0.1995,0.1984,0.2011,0.1993,0.1994,0.2017,0.2022,0.2026,0.2035,0.1973,0,0,0,0,0,0.1923,0.1927,0.1943,0.1947,0.1955,0.1976,0.1986,0.1995,0.2002,0.2006,0.2006,0.2006,0.2009,0.2009,0.2006,0.2016,0.2018,0.2032,0.2036,0.204,0.2046,0.2072,0.2079,0.2001,0.2001,0.2001,0,0,0.1922,0.1928,0.1931,0.1945,0.1961,0.1977,0.1982,0.2,0.2018,0.2001,0.202,0.2017,0.2013,0.2024,0.2029,0.2021,0.2061,0.2042,0.2045,0.205,0.2075,0.2082,0.2089,0.2003,0.2002,0.2002,0,0,0.1924,0.1926,0.1935,0.195,0.1972,0.1982,0.199,0.2012,0.2026,0.204,0.2037,0.2047,0.2048,0.2055,0.2058,0.2085,0.2081,0.2088,0.2118,0.2143,0.215,0.2156,0.2161,0.2167,0.2093,0.2093,0.2093,0,0.1922,0.1932,0.1941,0.1958,0.197,0.1986,0.2003,0.2022,0.204,0.2054,0.2048,0.2072,0.2067,0.2093,0.2103,0.2096,0.2102,0.2097,0.2149,0.2155,0.216,0.2164,0.2171,0.2095,0.2095,0.2094,0.2094,0,0.1934,0.1947,0.1955,0.1977,0.1992,0.2008,0.2032,0.2054,0.2069,0.2085,0.2114,0.2112,0.2129,0.2134,0.2125,0.2167,0.2155,0.2149,0.2136,0.217,0.2172,0.2178,0.2098,0.2097,0.2096,0.2096,0,0,0.1914,0.1955,0.1958,0.1976,0.2002,0.2016,0.2049,0.2082,0.2115,0.213,0.2168,0.218,0.2185,0.219,0.2188,0.2211,0.225,0.22,0.22,0.2204,0.2295,0.2278,0.2282,0.2255,0.2257,0.2258,0.2278,0,0.1921,0.1951,0.1969,0.2001,0.2017,0.2045,0.2075,0.2108,0.2139,0.2178,0.2193,0.2223,0.2206,0.2222,0.2241,0.2252,0.2269,0.2244,0.2262,0.2262,0.2242,0.229,0.2115,0.2119,0.2284,0.2285,0.2286,0,0.1919,0.1943,0.1971,0.2017,0.2027,0.2049,0.2103,0.2136,0.2193,0.222,0.2255,0.2268,0.2304,0.2285,0.2323,0.2309,0.2305,0.2308,0.2309,0.2286,0.2256,0.2113,0.2123,0.2295,0.2295,0.2294,0.2293,0,0.1889,0.1939,0.196,0.1975,0.203,0.2055,0.2088,0.2147,0.2181,0.2255,0.2283,0.2326,0.2349,0.2365,0.2368,0.2354,0.2403,0.2381,0.2357,0.2355,0.2207,0.219,0.2406,0.2406,0.2406,0.2406,0.2406,0,0.1874,0.1894,0.1953,0.1967,0.2001,0.2047,0.2093,0.2142,0.2208,0.2245,0.2301,0.2339,0.2373,0.2399,0.2393,0.2399,0.2423,0.2375,0.2369,0.2213,0.2198,0.235,0.2343,0.2407,0.2406,0.2406,0.2406,0,0.1833,0.187,0.19,0.1966,0.1984,0.2011,0.208,0.2118,0.2193,0.2246,0.227,0.2354,0.2406,0.2424,0.2457,0.243,0.244,0.2428,0.2238,0.2211,0.2364,0.2358,0.2411,0.2411,0.2411,0.241,0.241,0,0.1809,0.1822,0.1886,0.1902,0.1931,0.1979,0.2008,0.2094,0.2132,0.225,0.2265,0.2351,0.2387,0.2437,0.2429,0.2426,0.2446,0.2249,0.2197,0.238,0.2369,0.2364,0.236,0.2002,0.1999,0.1996,0.1993,0,0.1765,0.1791,0.1818,0.1849,0.188,0.1917,0.197,0.1993,0.2093,0.2147,0.222,0.2268,0.2343,0.2281,0.2299,0.2272,0.2242,0.2194,0.2435,0.2042,0.2001,0.1988,0.1995,0.1968,0.1971,0.1973,0.1974,0.1975,0.1722,0.1728,0.1756,0.1785,0.1812,0.1833,0.1843,0.19,0.1943,0.1992,0.2103,0.2111,0.2143,0.21,0.2043,0.2006,0.2156,0.2039,0.2045,0.2054,0.2018,0.198,0.1935,0.1937,0.1939,0.1941,0.1943,0,0.165,0.1669,0.1689,0.1705,0.1701,0.1753,0.1792,0.1779,0.1792,0.1855,0.1899,0.1763,0.1754,0.1779,0.1696,0.1712,0.1667,0.1632,0.1542,0.1571,0.1595,0.1532,0.1322,0.132,0.1317,0.1315,0,0,0.161,0.1596,0.1613,0.158,0.1599,0.1578,0.1589,0.1578,0.1598,0.1545,0.1535,0.1676,0.1739,0.15,0.1485,0.1383,0.1458,0.1334,0.184,0.1764,0.1785,0.1849,0.1788,0,0,0,0,0]},{"header":{"parameterUnit":"m.s-1","parameterCategory":2,"la1":30.2991,"la2":30.254,"lo1":-89.0895,"lo2":-89.0444,"dx":0.0017,"dy":0.0017,"nx":28,"ny":28,"refTime":"2022-11-16T09:00:00:Z","depth":"2","parameterNumber":3,"parameterNumberName":"V-component_of_CURRENTS"},"data":[0,0,0,0,0,0,0,0,0,0,0,0,0,0,0,0,0,0,0,0,0,0,0,0,0,0,0,0,0,0,0,0,0,0,0,0,0,0,0,0,0,0,0,0,0,0,0,0,0,0,0,0,0,0,0,0,0,0,-0.0197,-0.0197,0,-0.0263,-0.0264,-0.0265,-0.0309,-0.0309,-0.0309,-0.031,-0.0331,-0.0331,-0.0332,0,0,0,0,0,0,0,0,0,0,0,0,0,-0.0161,-0.0161,-0.0197,-0.0197,-0.0198,-0.0263,-0.0264,-0.0265,-0.0309,-0.0309,-0.0309,-0.031,-0.0331,-0.0331,-0.0332,0,0,0,0,0,0,0,0,0,0,0,0,0,-0.0197,-0.0161,-0.0197,-0.0227,-0.0231,-0.0263,-0.0264,-0.0265,-0.0309,-0.0309,-0.0309,-0.031,-0.0331,-0.0331,-0.0332,-0.0329,0,0,-0.0334,-0.0334,0,0,0,0,0,0,0,0,-0.0195,-0.0199,-0.0222,-0.0225,-0.0229,-0.0277,-0.026,-0.0284,-0.0309,-0.028,-0.031,-0.031,-0.0308,-0.0311,-0.0324,-0.033,-0.0331,-0.0334,-0.0334,-0.0334,-0.0334,0,0,0,0,0,0,0,-0.0192,-0.0196,-0.0224,-0.0223,-0.0227,-0.0256,-0.0261,-0.0265,-0.0291,-0.0282,-0.0286,-0.0292,-0.031,-0.0324,-0.0325,-0.0331,-0.0334,-0.0334,-0.0334,-0.0335,-0.0342,-0.0342,0,0,0,0,0,0,-0.018,-0.0194,-0.0222,-0.0226,-0.0212,-0.0256,-0.0262,-0.0262,-0.0292,-0.0297,-0.0291,-0.0294,-0.0323,-0.0324,-0.0326,-0.0321,-0.0334,-0.0335,-0.0335,-0.0342,-0.0342,-0.0342,0,0,0,0,0,0,-0.0178,-0.0181,-0.0219,-0.0211,-0.0218,-0.0256,-0.0256,-0.0263,-0.0287,-0.0299,-0.0304,-0.0308,-0.0323,-0.0325,-0.0323,-0.0322,-0.0335,-0.0335,-0.0343,-0.0342,-0.0342,-0.0312,0,0,0,0,0,0,-0.0177,-0.018,-0.0179,-0.021,-0.0218,-0.0229,-0.0256,-0.0264,-0.0289,-0.0293,-0.0315,-0.0317,-0.0323,-0.0322,-0.0323,-0.0323,-0.0336,-0.0343,-0.0342,-0.0342,-0.0314,-0.0311,-0.0309,0,0,0,0,0,-0.0175,-0.0166,-0.0179,-0.0182,-0.0214,-0.0228,-0.0235,-0.0264,-0.0289,-0.029,-0.0304,-0.0317,-0.0322,-0.0321,-0.0323,-0.0323,-0.0343,-0.0343,-0.0342,-0.0314,-0.0312,-0.0309,0,0,0,0,0,0,-0.0149,-0.017,-0.0185,-0.0183,-0.0201,-0.0235,-0.0241,-0.0268,-0.0284,-0.0289,-0.0309,-0.0311,-0.0312,-0.032,-0.032,-0.0326,-0.0337,-0.0337,-0.0315,-0.0313,-0.0311,-0.0296,-0.0336,0,0,0,0,0,-0.0142,-0.0144,-0.0167,-0.0168,-0.0174,-0.0212,-0.0226,-0.0245,-0.0264,-0.0274,-0.0291,-0.0306,-0.0312,-0.0314,-0.032,-0.0318,-0.0326,-0.0322,-0.0319,-0.0317,-0.0307,-0.0321,-0.0319,-0.0341,-0.0341,-0.0341,0,0,-0.0136,-0.0146,-0.0149,-0.0163,-0.0183,-0.0184,-0.0221,-0.0236,-0.0239,-0.027,-0.0279,-0.0298,-0.031,-0.0308,-0.031,-0.0314,-0.0315,-0.0317,-0.0315,-0.0306,-0.0321,-0.0318,-0.0317,-0.0341,-0.0341,-0.0341,0,0,-0.0115,-0.0128,-0.012,-0.0131,-0.0151,-0.0169,-0.0173,-0.0207,-0.0222,-0.023,-0.0255,-0.0271,-0.0283,-0.0292,-0.0298,-0.0287,-0.0304,-0.0296,-0.027,-0.0284,-0.0282,-0.0281,-0.0285,-0.0285,-0.0293,-0.0293,-0.0293,0,-0.0102,-0.0097,-0.012,-0.0114,-0.0116,-0.016,-0.0148,-0.0169,-0.0199,-0.0204,-0.0224,-0.0256,-0.0274,-0.0272,-0.0272,-0.0282,-0.0288,-0.0279,-0.0281,-0.0279,-0.0278,-0.0284,-0.0283,-0.0292,-0.0292,-0.0292,-0.0292,0,-0.0074,-0.0073,-0.0068,-0.0071,-0.0075,-0.0074,-0.0096,-0.0108,-0.0137,-0.0161,-0.0174,-0.0204,-0.0221,-0.0237,-0.0251,-0.0254,-0.026,-0.0277,-0.0285,-0.0274,-0.0281,-0.028,-0.029,-0.029,-0.0291,-0.0291,0,0,-0.003,-0.0044,-0.0041,-0.0036,-0.0051,-0.0049,-0.0048,-0.0055,-0.0055,-0.0096,-0.0094,-0.0131,-0.0163,-0.0171,-0.02,-0.0219,-0.0226,-0.0242,-0.0243,-0.0242,-0.0247,-0.0261,-0.0263,-0.0244,-0.0243,-0.0243,-0.0253,0,0.0003,0.0027,0.0011,0.0032,0.0044,0.0016,0.0024,0.0009,-0.0013,-0.0022,-0.0068,-0.0082,-0.0132,-0.0143,-0.0168,-0.021,-0.0224,-0.0221,-0.0261,-0.0262,-0.0273,-0.0263,-0.0242,-0.025,-0.0253,-0.0253,-0.0253,0,0.0044,0.0054,0.0085,0.0088,0.0093,0.0101,0.0112,0.011,0.0086,0.0068,0.0038,-0.0005,-0.0039,-0.0084,-0.0147,-0.0141,-0.0187,-0.0225,-0.0226,-0.0248,-0.0276,-0.0263,-0.025,-0.0253,-0.0253,-0.0253,-0.0253,0,0.0098,0.0108,0.0137,0.0138,0.0138,0.0152,0.0152,0.0139,0.015,0.0122,0.0123,0.0067,0.0049,-0.0021,-0.0114,-0.0128,-0.0177,-0.0207,-0.026,-0.0262,-0.0255,-0.0257,-0.0244,-0.0244,-0.0244,-0.0244,-0.0244,0,0.0146,0.0166,0.0164,0.0181,0.022,0.0202,0.024,0.0227,0.0227,0.0254,0.0172,0.0184,0.0063,0.0012,-0.0079,-0.0164,-0.0152,-0.0248,-0.0264,-0.0245,-0.0245,-0.0258,-0.026,-0.0244,-0.0244,-0.0244,-0.0244,0,0.0197,0.0194,0.0227,0.0238,0.0247,0.0276,0.0301,0.033,0.031,0.0347,0.034,0.028,0.0207,0.0084,-0.0022,-0.0109,-0.02,-0.0233,-0.0199,-0.0212,-0.0283,-0.0282,-0.0291,-0.0291,-0.0292,-0.0292,-0.0292,0,0.0225,0.0248,0.0277,0.0308,0.0315,0.0352,0.0387,0.0379,0.0414,0.0415,0.0446,0.0376,0.0347,0.0175,0.0003,-0.0154,-0.0185,-0.0237,-0.027,-0.0271,-0.0287,-0.0286,-0.0285,-0.0247,-0.0247,-0.0247,-0.0247,0,0.0282,0.0291,0.032,0.038,0.0424,0.0466,0.051,0.0551,0.0557,0.0579,0.0604,0.0576,0.0407,0.0247,0.0017,-0.0091,-0.0218,-0.0242,-0.0243,-0.0243,-0.0233,-0.0247,-0.0247,-0.0246,-0.0246,-0.0247,-0.0247,-0.0247,0.0328,0.036,0.0402,0.0458,0.0509,0.057,0.0615,0.0667,0.0724,0.076,0.0734,0.0698,0.0508,0.0215,0.0012,-0.0209,-0.0204,-0.0279,-0.0278,-0.0277,-0.0275,-0.0267,-0.0286,-0.0286,-0.0286,-0.0286,-0.0287,0,0.0385,0.0416,0.0477,0.0541,0.0607,0.0612,0.0694,0.0746,0.0821,0.0847,0.0856,0.0697,0.0495,0.0268,-0.0055,-0.0247,-0.0264,-0.0308,-0.0286,-0.0285,-0.0284,-0.0282,-0.0295,-0.0296,-0.0296,-0.0297,0,0,0.0417,0.0483,0.0509,0.0616,0.0658,0.0738,0.0782,0.0862,0.09,0.0939,0.0913,0.0846,0.057,0.034,0.0074,-0.0114,-0.0158,-0.0152,-0.0123,-0.0065,-0.0062,-0.0245,-0.0238,0,0,0,0,0]}],[{"header":{"parameterUnit":"m.s-1","parameterCategory":2,"la1":30.2991,"la2":30.254,"lo1":-89.0895,"lo2":-89.0444,"dx":0.0017,"dy":0.0017,"nx":28,"ny":28,"refTime":"2022-11-16T09:00:00:Z","depth":"4","parameterNumber":2,"parameterNumberName":"U-component_of_CURRENTS"},"data":[0,0,0,0,0,0,0,0,0,0,0,0,0,0,0,0,0,0,0,0,0,0,0,0,0,0,0,0,0,0,0,0,0,0,0,0,0,0,0,0,0,0,0,0,0,0,0,0,0,0,0,0,0,0,0,0,0,0,0.091,0.0911,0,0.0938,0.0938,0.0938,0.0982,0.0983,0.0984,0.0986,0.1087,0.1089,0.109,0,0,0,0,0,0,0,0,0,0,0,0,0,0.0849,0.085,0.091,0.0911,0.0912,0.0938,0.0938,0.0938,0.0982,0.0983,0.0985,0.0986,0.1087,0.1089,0.109,0,0,0,0,0,0,0,0,0,0,0,0,0,0.0872,0.085,0.091,0.0941,0.0944,0.0938,0.0938,0.0938,0.0981,0.0983,0.0985,0.0987,0.1086,0.1088,0.1091,0.1067,0,0,0.1098,0.1099,0,0,0,0,0,0,0,0,0.087,0.0873,0.0935,0.0939,0.0942,0.0963,0.0954,0.0987,0.0981,0.0962,0.0986,0.0988,0.1054,0.1059,0.1052,0.1072,0.1076,0.1098,0.1099,0.11,0.1101,0,0,0,0,0,0,0,0.0869,0.0872,0.0916,0.0936,0.094,0.0938,0.0943,0.096,0.0995,0.0964,0.0968,0.0979,0.1056,0.105,0.1055,0.1078,0.1098,0.11,0.1101,0.1102,0.1205,0.1206,0,0,0,0,0,0,0.0876,0.0871,0.0915,0.0918,0.0916,0.0938,0.0943,0.095,0.0993,0.1002,0.0977,0.0981,0.1045,0.1053,0.1059,0.1154,0.11,0.1102,0.1104,0.1204,0.1205,0.1207,0,0,0,0,0,0,0.0874,0.0879,0.0914,0.0899,0.0904,0.0938,0.0945,0.095,0.0982,0.1003,0.1013,0.1009,0.1047,0.1056,0.1119,0.1154,0.1103,0.1106,0.1202,0.1204,0.1206,0.1266,0,0,0,0,0,0,0.0872,0.0878,0.0901,0.0899,0.0906,0.0942,0.0944,0.0949,0.0986,0.0992,0.1033,0.1042,0.1049,0.1116,0.1121,0.1156,0.1107,0.1201,0.1203,0.1206,0.1263,0.127,0.1277,0,0,0,0,0,0.087,0.0889,0.0902,0.0909,0.093,0.0944,0.0947,0.0972,0.0986,0.1006,0.1043,0.1043,0.1135,0.1119,0.1125,0.1161,0.1199,0.1202,0.1205,0.126,0.1269,0.1277,0,0,0,0,0,0,0.0875,0.0896,0.091,0.0936,0.0955,0.0954,0.0977,0.0989,0.1028,0.1049,0.1063,0.1075,0.1143,0.1141,0.1122,0.1197,0.1166,0.117,0.1205,0.1214,0.122,0.1226,0.1109,0,0,0,0,0,0.0885,0.0909,0.0924,0.0949,0.096,0.0972,0.0987,0.1008,0.1034,0.1053,0.1082,0.1116,0.1149,0.1176,0.1202,0.1242,0.1241,0.1268,0.1275,0.1281,0.129,0.1306,0.1316,0.1217,0.1217,0.1217,0,0,0.089,0.0911,0.0922,0.0953,0.0965,0.0986,0.0986,0.1021,0.1049,0.1058,0.1118,0.1148,0.1167,0.1219,0.1248,0.123,0.1313,0.1285,0.129,0.1296,0.1311,0.132,0.1329,0.1219,0.1219,0.1218,0,0,0.0907,0.0932,0.0957,0.0973,0.1013,0.1021,0.104,0.1065,0.1092,0.1143,0.1163,0.1211,0.1258,0.1278,0.1291,0.1348,0.1351,0.1368,0.1409,0.1425,0.1433,0.144,0.1466,0.1475,0.1369,0.1369,0.1369,0,0.0925,0.0948,0.0966,0.0993,0.1016,0.1041,0.107,0.109,0.1139,0.1166,0.1177,0.126,0.1276,0.1335,0.1364,0.1363,0.1385,0.1376,0.1434,0.1441,0.1447,0.1471,0.148,0.1372,0.1372,0.1371,0.1371,0,0.094,0.0976,0.099,0.1033,0.1061,0.109,0.1121,0.116,0.1196,0.1219,0.1298,0.1326,0.1373,0.1389,0.1399,0.1462,0.147,0.1443,0.1412,0.1461,0.1483,0.1492,0.1377,0.1376,0.1375,0.1374,0,0,0.0944,0.0994,0.1004,0.1032,0.1088,0.1107,0.1161,0.1209,0.1248,0.1303,0.1355,0.1417,0.1445,0.1463,0.1486,0.1509,0.1573,0.1512,0.1512,0.1537,0.1638,0.1536,0.1534,0.1571,0.1572,0.1574,0.1641,0,0.096,0.1008,0.1035,0.109,0.1116,0.1157,0.1202,0.1256,0.1301,0.1355,0.1397,0.146,0.1468,0.1512,0.1538,0.1568,0.1597,0.1559,0.1588,0.1589,0.149,0.154,0.1578,0.1647,0.1649,0.165,0.1651,0,0.097,0.1003,0.1056,0.1122,0.1139,0.1181,0.1258,0.1305,0.1379,0.1415,0.1481,0.1519,0.1588,0.1573,0.1647,0.1635,0.1651,0.1661,0.1662,0.1549,0.15,0.1584,0.1666,0.1665,0.1664,0.1663,0.1662,0,0.0953,0.1021,0.1066,0.1085,0.116,0.1204,0.1256,0.1334,0.1378,0.1468,0.1509,0.1585,0.1636,0.1669,0.1704,0.1692,0.1769,0.1734,0.1657,0.1651,0.1695,0.1687,0.1777,0.1777,0.1777,0.1777,0.1776,0,0.0949,0.0988,0.1065,0.1083,0.1147,0.1213,0.129,0.1342,0.1427,0.1484,0.1553,0.1602,0.1669,0.1717,0.1731,0.1725,0.1786,0.1678,0.1661,0.1721,0.1715,0.1702,0.1693,0.1779,0.1779,0.1778,0.1778,0,0.092,0.097,0.1025,0.111,0.1141,0.1195,0.1299,0.1345,0.1437,0.1512,0.1549,0.1637,0.1701,0.1747,0.1799,0.1748,0.1751,0.1732,0.182,0.1804,0.162,0.1613,0.1647,0.1644,0.1642,0.164,0.1638,0,0.0904,0.0931,0.1029,0.1067,0.111,0.1194,0.1246,0.1342,0.1389,0.1521,0.1548,0.1646,0.1695,0.1684,0.1736,0.1748,0.1725,0.1715,0.1647,0.1627,0.1607,0.1604,0.1601,0.1634,0.1633,0.1632,0.1632,0,0.0869,0.092,0.096,0.1034,0.1097,0.1156,0.124,0.1258,0.1376,0.1465,0.1509,0.1537,0.16,0.1624,0.1648,0.1651,0.1709,0.1687,0.1692,0.1627,0.1611,0.1593,0.1593,0.1623,0.1624,0.1625,0.1625,0,0.085,0.0869,0.0932,0.0991,0.1064,0.1101,0.1149,0.1204,0.1257,0.1392,0.1408,0.1503,0.1591,0.1576,0.16,0.1592,0.156,0.1496,0.151,0.152,0.1444,0.1402,0.1345,0,0,0,0,0,0.0821,0.0832,0.088,0.0936,0.1004,0.1044,0.1135,0.1184,0.1289,0.1286,0.134,0.1391,0.1419,0.1464,0.143,0.1544,0.1568,0.1497,0.1501,0.1572,0.1583,0.1503,0,0,0,0,0,0,0.0799,0.0837,0.0854,0.0879,0.0904,0.0964,0.1017,0.1088,0.1091,0.12,0.1221,0.1304,0.1351,0.1424,0.1402,0.1417,0.139,0.1557,0.1553,0.1567,0.1576,0.1584,0.1506,0,0,0,0,0]},{"header":{"parameterUnit":"m.s-1","parameterCategory":2,"la1":30.2991,"la2":30.254,"lo1":-89.0895,"lo2":-89.0444,"dx":0.0017,"dy":0.0017,"nx":28,"ny":28,"refTime":"2022-11-16T09:00:00:Z","depth":"4","parameterNumber":3,"parameterNumberName":"V-component_of_CURRENTS"},"data":[0,0,0,0,0,0,0,0,0,0,0,0,0,0,0,0,0,0,0,0,0,0,0,0,0,0,0,0,0,0,0,0,0,0,0,0,0,0,0,0,0,0,0,0,0,0,0,0,0,0,0,0,0,0,0,0,0,0,0.0365,0.0364,0,0.0355,0.0356,0.0356,0.0358,0.0358,0.0357,0.0357,0.0292,0.0291,0.0289,0,0,0,0,0,0,0,0,0,0,0,0,0,0.0386,0.0386,0.0365,0.0364,0.0364,0.0355,0.0356,0.0356,0.0358,0.0358,0.0357,0.0357,0.0293,0.0291,0.0289,0,0,0,0,0,0,0,0,0,0,0,0,0,0.0381,0.0386,0.0365,0.0361,0.036,0.0355,0.0356,0.0356,0.0358,0.0358,0.0357,0.0357,0.0294,0.0291,0.0289,0.0282,0,0,0.0282,0.0281,0,0,0,0,0,0,0,0,0.0381,0.0381,0.0362,0.0361,0.036,0.0354,0.0339,0.0327,0.0358,0.0363,0.0357,0.0357,0.0305,0.0302,0.0308,0.0278,0.0276,0.0282,0.0281,0.028,0.0279,0,0,0,0,0,0,0,0.0382,0.0381,0.0365,0.0361,0.036,0.0359,0.0359,0.0338,0.0338,0.0363,0.0362,0.0354,0.0305,0.031,0.0306,0.0275,0.0282,0.028,0.0279,0.0278,0.0234,0.0234,0,0,0,0,0,0,0.0375,0.0382,0.0366,0.0365,0.0365,0.0359,0.0359,0.036,0.034,0.0336,0.0354,0.0354,0.0314,0.0309,0.0304,0.0283,0.028,0.0277,0.0276,0.0234,0.0234,0.0234,0,0,0,0,0,0,0.0375,0.0374,0.0366,0.0369,0.0367,0.0359,0.036,0.0359,0.0363,0.0333,0.0329,0.0358,0.0314,0.0307,0.0275,0.0281,0.0276,0.0274,0.0233,0.0234,0.0234,0.0249,0,0,0,0,0,0,0.0376,0.0374,0.0377,0.0369,0.0367,0.0362,0.036,0.0359,0.0357,0.0357,0.0334,0.0329,0.0313,0.0278,0.0272,0.0278,0.0273,0.0233,0.0234,0.0234,0.0248,0.0249,0.0251,0,0,0,0,0,0.0377,0.0379,0.0377,0.0375,0.0369,0.0361,0.0361,0.0356,0.0357,0.0359,0.0337,0.0329,0.0277,0.0276,0.0269,0.0274,0.0233,0.0233,0.0234,0.0247,0.0249,0.0251,0,0,0,0,0,0,0.0386,0.0379,0.0377,0.0375,0.0367,0.036,0.0361,0.0358,0.0346,0.0341,0.032,0.0312,0.029,0.0279,0.0278,0.0265,0.0259,0.0258,0.0271,0.0273,0.0274,0.0279,0.0271,0,0,0,0,0,0.0389,0.0392,0.038,0.0379,0.0377,0.0371,0.0368,0.0361,0.0346,0.0343,0.0329,0.031,0.0289,0.0277,0.0258,0.0243,0.0223,0.0247,0.0248,0.025,0.025,0.0224,0.0223,0.0236,0.0236,0.0236,0,0,0.0395,0.0386,0.0391,0.0381,0.0379,0.0377,0.037,0.0363,0.0362,0.0334,0.0332,0.031,0.0285,0.0269,0.026,0.0259,0.0233,0.025,0.0251,0.0251,0.0225,0.0223,0.0222,0.0236,0.0236,0.0236,0,0,0.0398,0.0399,0.0402,0.0397,0.0383,0.0379,0.0377,0.0369,0.037,0.0354,0.0337,0.0318,0.0292,0.0279,0.0267,0.0265,0.0239,0.0263,0.0274,0.0249,0.0248,0.0246,0.0208,0.0203,0.0266,0.0266,0.0267,0,0.0399,0.0404,0.04,0.0397,0.0394,0.0381,0.0382,0.038,0.0363,0.036,0.0354,0.032,0.0301,0.0279,0.0279,0.0269,0.0241,0.0268,0.025,0.0248,0.0247,0.0208,0.0202,0.0267,0.0267,0.0267,0.0267,0,0.0403,0.0409,0.041,0.0406,0.0403,0.04,0.0392,0.0394,0.039,0.0381,0.0362,0.0336,0.0316,0.0311,0.029,0.0273,0.0251,0.0251,0.0245,0.0246,0.0205,0.0199,0.0268,0.0268,0.0268,0.0268,0,0,0.0401,0.0411,0.0413,0.042,0.0408,0.0408,0.0409,0.0405,0.041,0.0391,0.0391,0.0357,0.0342,0.0327,0.0305,0.0284,0.0245,0.0261,0.0259,0.022,0.0171,0.016,0.0152,0.0236,0.0235,0.0234,0.0143,0,0.0404,0.0412,0.0412,0.0424,0.0431,0.0426,0.0433,0.0425,0.0417,0.0415,0.0387,0.0372,0.0349,0.0337,0.0311,0.0263,0.023,0.0269,0.0177,0.0175,0.0163,0.0146,0.0232,0.0138,0.0137,0.0136,0.0135,0,0.0405,0.0414,0.0427,0.0446,0.0449,0.0455,0.0466,0.0467,0.0454,0.0448,0.0423,0.0395,0.0358,0.0344,0.0258,0.0278,0.0223,0.0185,0.0181,0.0163,0.0153,0.0139,0.0123,0.0124,0.0125,0.0126,0.0127,0,0.041,0.0425,0.044,0.0444,0.046,0.0472,0.0481,0.0478,0.0484,0.0466,0.0461,0.0409,0.0386,0.0317,0.0236,0.0239,0.0138,0.0139,0.0073,0.007,0.0101,0.0104,0.0073,0.0073,0.0073,0.0073,0.0074,0,0.0409,0.0425,0.0451,0.0461,0.049,0.0491,0.0515,0.0518,0.0516,0.0518,0.0477,0.0462,0.0377,0.0309,0.0234,0.0131,0.0133,0.0065,0.0047,0.0108,0.0113,0.0095,0.0099,0.007,0.0071,0.0071,0.0072,0,0.041,0.0423,0.0449,0.0479,0.0493,0.0514,0.0546,0.056,0.0555,0.0556,0.0549,0.0491,0.04,0.0305,0.0189,0.0131,0.0038,-0.0001,0.0058,0.0046,-0.0018,-0.0012,-0.0088,-0.0089,-0.009,-0.0091,-0.0091,0,0.0409,0.0423,0.0469,0.049,0.0508,0.0542,0.0568,0.0581,0.0591,0.0572,0.0569,0.0487,0.0435,0.0263,0.0165,0.0011,-0.0006,-0.0058,-0.003,-0.0024,-0.0034,-0.0027,-0.002,-0.0093,-0.0093,-0.0093,-0.0094,0,0.0413,0.0433,0.0459,0.0507,0.0541,0.0575,0.061,0.062,0.0626,0.0622,0.0579,0.049,0.0383,0.0257,0.0134,0.003,-0.0021,-0.0068,-0.0067,-0.0041,-0.0031,-0.0038,-0.0031,-0.0097,-0.0096,-0.0096,-0.0096,0,0.042,0.0441,0.0481,0.0521,0.0563,0.0594,0.0613,0.0624,0.0633,0.0612,0.0595,0.0489,0.0428,0.0265,0.0156,0.0047,0.0022,-0.0002,-0.0004,-0.0002,0.0056,0.0083,0.003,0,0,0,0,0,0.0425,0.0452,0.049,0.0534,0.0575,0.0604,0.0634,0.0646,0.0654,0.0627,0.0612,0.0513,0.0348,0.028,0.0167,0.0131,-0.0001,-0.0005,-0.0031,-0.0115,-0.0111,-0.0057,0,0,0,0,0,0,0.0429,0.0469,0.049,0.0537,0.0571,0.0617,0.064,0.0645,0.0628,0.062,0.0533,0.0493,0.033,0.0414,0.0168,0.0135,0.0104,-0.0081,-0.0083,-0.0117,-0.0114,-0.0111,-0.0054,0,0,0,0,0]}]]